Previsão horária em Judeida

Hoje, 19 Junho, Sábado

Tempo Temperatura Precipitação Vento Pressão Humidade
00:00 +21°C° 0 mm 2 m/s 752 mmHg 79%
01:00 +22°C° 0 mm 1 m/s 751 mmHg 80%
02:00 +22°C° 0 mm 1 m/s 751 mmHg 82%
03:00 +22°C° 0 mm 1 m/s 751 mmHg 83%
04:00 +21°C° 0 mm 1 m/s 751 mmHg 84%
05:00 +21°C° 0 mm 1 m/s 751 mmHg 85%
06:00 +23°C° 0 mm 2 m/s 751 mmHg 77%
07:00 +25°C° 0 mm 3 m/s 751 mmHg 69%
08:00 +27°C° 0 mm 3 m/s 751 mmHg 62%
09:00 +28°C° 0 mm 4 m/s 751 mmHg 57%
10:00 +29°C° 0 mm 4 m/s 751 mmHg 53%
11:00 +30°C° 0 mm 5 m/s 751 mmHg 49%
12:00 +30°C° 0 mm 5 m/s 751 mmHg 49%
13:00 +30°C° 0 mm 5 m/s 751 mmHg 49%
14:00 +30°C° 0 mm 5 m/s 750 mmHg 50%
15:00 +29°C° 0 mm 5 m/s 750 mmHg 52%
16:00 +29°C° 0 mm 5 m/s 750 mmHg 54%
17:00 +28°C° 0 mm 5 m/s 750 mmHg 56%
18:00 +27°C° 0 mm 4 m/s 750 mmHg 62%
19:00 +25°C° 0 mm 3 m/s 751 mmHg 69%
20:00 +24°C° 0 mm 2 m/s 751 mmHg 75%
21:00 +24°C° 0 mm 2 m/s 751 mmHg 77%
22:00 +23°C° 0 mm 2 m/s 751 mmHg 78%
23:00 +23°C° 0 mm 2 m/s 751 mmHg 80%

Amanhã, 20 Junho, Domingo

Tempo Temperatura Precipitação Vento Pressão Humidade
00:00 +23°C° 0 mm 1 m/s 751 mmHg 81%
01:00 +22°C° 0 mm 1 m/s 751 mmHg 82%
02:00 +22°C° 0 mm 1 m/s 751 mmHg 83%
03:00 +22°C° 0 mm 1 m/s 751 mmHg 83%
04:00 +22°C° 0 mm 1 m/s 751 mmHg 83%
05:00 +22°C° 0 mm 1 m/s 751 mmHg 83%
06:00 +23°C° 0 mm 1 m/s 751 mmHg 73%
07:00 +25°C° 0 mm 1 m/s 751 mmHg 63%
08:00 +27°C° 0 mm 2 m/s 751 mmHg 53%
09:00 +28°C° 0 mm 2 m/s 751 mmHg 49%
10:00 +30°C° 0 mm 3 m/s 751 mmHg 45%
11:00 +32°C° 0 mm 4 m/s 751 mmHg 41%
12:00 +32°C° 0 mm 4 m/s 751 mmHg 43%
13:00 +32°C° 0 mm 5 m/s 750 mmHg 45%
14:00 +30°C° 0 mm 5 m/s 750 mmHg 46%
15:00 +30°C° 0 mm 5 m/s 750 mmHg 49%
16:00 +29°C° 0 mm 4 m/s 750 mmHg 52%
17:00 +28°C° 0 mm 4 m/s 750 mmHg 55%
18:00 +27°C° 0 mm 4 m/s 750 mmHg 61%
19:00 +26°C° 0 mm 3 m/s 750 mmHg 68%
20:00 +24°C° 0 mm 2 m/s 750 mmHg 74%
21:00 +24°C° 0 mm 2 m/s 751 mmHg 76%
22:00 +24°C° 0 mm 2 m/s 751 mmHg 77%
23:00 +23°C° 0 mm 2 m/s 751 mmHg 79%

Depois de amanhã, 21 Junho, Segunda-feira

Tempo Temperatura Precipitação Vento Pressão Humidade
00:00 +23°C° 0 mm 1 m/s 751 mmHg 79%
01:00 +23°C° 0 mm 1 m/s 750 mmHg 79%
02:00 +22°C° 0 mm 1 m/s 750 mmHg 80%
03:00 +20°C° 0 mm 0 m/s 750 mmHg 79%
04:00 +20°C° 0 mm 0 m/s 750 mmHg 78%
05:00 +20°C° 0 mm 0 m/s 751 mmHg 77%
06:00 +24°C° 0 mm 1 m/s 751 mmHg 67%
07:00 +26°C° 0 mm 1 m/s 751 mmHg 57%
08:00 +28°C° 0 mm 2 m/s 751 mmHg 47%
09:00 +29°C° 0 mm 2 m/s 751 mmHg 44%
10:00 +30°C° 0 mm 3 m/s 751 mmHg 41%
11:00 +32°C° 0 mm 4 m/s 751 mmHg 39%
12:00 +32°C° 0 mm 4 m/s 751 mmHg 40%
13:00 +32°C° 0 mm 4 m/s 751 mmHg 42%
14:00 +32°C° 0 mm 5 m/s 751 mmHg 44%
15:00 +30°C° 0 mm 4 m/s 751 mmHg 47%
16:00 +29°C° 0 mm 4 m/s 751 mmHg 50%
17:00 +29°C° 0 mm 4 m/s 751 mmHg 54%
18:00 +27°C° 0 mm 3 m/s 751 mmHg 60%
19:00 +26°C° 0 mm 2 m/s 751 mmHg 67%
20:00 +25°C° 0 mm 1 m/s 751 mmHg 74%
21:00 +24°C° 0 mm 1 m/s 751 mmHg 76%
22:00 +24°C° 0 mm 1 m/s 751 mmHg 78%
23:00 +24°C° 0 mm 1 m/s 751 mmHg 79%

22 Junho, Terça-feira

Tempo Temperatura Precipitação Vento Pressão Humidade
00:00 +23°C° 0 mm 1 m/s 751 mmHg 81%
01:00 +23°C° 0 mm 1 m/s 751 mmHg 82%
02:00 +21°C° 0 mm 0 m/s 751 mmHg 84%
03:00 +23°C° 0 mm 1 m/s 751 mmHg 84%
04:00 +23°C° 0 mm 1 m/s 751 mmHg 84%
05:00 +23°C° 0 mm 1 m/s 751 mmHg 85%
06:00 +24°C° 0 mm 1 m/s 751 mmHg 76%
07:00 +26°C° 0 mm 1 m/s 751 mmHg 67%
08:00 +28°C° 0 mm 2 m/s 751 mmHg 58%
09:00 +29°C° 0 mm 2 m/s 751 mmHg 54%
10:00 +30°C° 0 mm 3 m/s 751 mmHg 50%
11:00 +33°C° 0 mm 4 m/s 751 mmHg 45%
12:00 +32°C° 0 mm 4 m/s 751 mmHg 46%
13:00 +32°C° 0 mm 5 m/s 751 mmHg 46%
14:00 +32°C° 0 mm 5 m/s 751 mmHg 47%
15:00 +32°C° 0 mm 5 m/s 751 mmHg 49%
16:00 +30°C° 0 mm 4 m/s 751 mmHg 51%
17:00 +29°C° 0 mm 4 m/s 751 mmHg 53%
18:00 +28°C° 0 mm 3 m/s 751 mmHg 61%
19:00 +26°C° 0 mm 3 m/s 751 mmHg 68%
20:00 +25°C° 0 mm 2 m/s 752 mmHg 75%
21:00 +25°C° 0 mm 2 m/s 751 mmHg 76%
22:00 +24°C° 0 mm 2 m/s 751 mmHg 77%
23:00 +24°C° 0 mm 2 m/s 751 mmHg 78%

23 Junho, Quarta-feira

Tempo Temperatura Precipitação Vento Pressão Humidade
00:00 +24°C° 0 mm 1 m/s 751 mmHg 79%
01:00 +23°C° 0 mm 1 m/s 751 mmHg 79%
02:00 +23°C° 0 mm 1 m/s 751 mmHg 80%
03:00 +23°C° 0 mm 1 m/s 751 mmHg 81%
04:00 +21°C° 0 mm 0 m/s 752 mmHg 81%
05:00 +21°C° 0 mm 0 m/s 752 mmHg 81%
06:00 +25°C° 0 mm 1 m/s 752 mmHg 71%
07:00 +27°C° 0 mm 1 m/s 752 mmHg 62%
08:00 +29°C° 0 mm 1 m/s 752 mmHg 52%
09:00 +30°C° 0 mm 2 m/s 752 mmHg 47%
10:00 +31°C° 0 mm 3 m/s 752 mmHg 42%
11:00 +34°C° 0 mm 3 m/s 752 mmHg 37%
12:00 +34°C° 0 mm 4 m/s 752 mmHg 38%
13:00 +34°C° 0 mm 4 m/s 751 mmHg 38%
14:00 +34°C° 0 mm 5 m/s 751 mmHg 39%
15:00 +33°C° 0 mm 5 m/s 751 mmHg 40%
16:00 +32°C° 0 mm 5 m/s 751 mmHg 40%
17:00 +32°C° 0 mm 5 m/s 751 mmHg 41%
18:00 +29°C° 0 mm 5 m/s 751 mmHg 48%
19:00 +27°C° 0 mm 4 m/s 751 mmHg 55%
20:00 +26°C° 0 mm 4 m/s 751 mmHg 62%
21:00 +25°C° 0 mm 4 m/s 751 mmHg 64%
22:00 +25°C° 0 mm 3 m/s 751 mmHg 65%
23:00 +25°C° 0 mm 3 m/s 751 mmHg 66%

24 Junho, Quinta-feira

Tempo Temperatura Precipitação Vento Pressão Humidade
00:00 +24°C° 0 mm 3 m/s 751 mmHg 67%
01:00 +24°C° 0 mm 2 m/s 751 mmHg 68%
02:00 +24°C° 0 mm 2 m/s 751 mmHg 69%
03:00 +24°C° 0 mm 2 m/s 751 mmHg 70%
04:00 +23°C° 0 mm 2 m/s 751 mmHg 71%
05:00 +23°C° 0 mm 2 m/s 751 mmHg 72%
06:00 +26°C° 0 mm 2 m/s 751 mmHg 64%
07:00 +28°C° 0 mm 2 m/s 751 mmHg 56%
08:00 +30°C° 0 mm 2 m/s 751 mmHg 47%
09:00 +31°C° 0 mm 3 m/s 751 mmHg 44%
10:00 +34°C° 0 mm 3 m/s 751 mmHg 41%
11:00 +35°C° 0 mm 4 m/s 750 mmHg 38%
12:00 +35°C° 0 mm 4 m/s 750 mmHg 39%
13:00 +35°C° 0 mm 5 m/s 750 mmHg 41%
14:00 +35°C° 0 mm 6 m/s 750 mmHg 42%
15:00 +34°C° 0 mm 5 m/s 749 mmHg 44%
16:00 +33°C° 0 mm 5 m/s 749 mmHg 47%
17:00 +32°C° 0 mm 5 m/s 749 mmHg 49%
18:00 +30°C° 0 mm 5 m/s 749 mmHg 56%
19:00 +28°C° 0 mm 4 m/s 749 mmHg 63%
20:00 +27°C° 0 mm 3 m/s 749 mmHg 70%
21:00 +26°C° 0 mm 3 m/s 749 mmHg 70%
22:00 +26°C° 0 mm 2 m/s 749 mmHg 71%
23:00 +25°C° 0 mm 2 m/s 750 mmHg 71%
Mostrar mais

Necessitamos do seu Consentimento

A Meteoprog e os seus Fornecedores de Serviços podem armazenar e aceder a dados pessoais como cookies, identificadores do dispositivo ou outras tecnologias semelhantes existentes no seu dispositivo e processar estes dados para personalizar conteúdos e anúncios, assim como funcionalidades nas redes sociais e análise de tráfego.

  • Armazenar e/ou aceder a informações no seu dispositivo

    Os cookies, identificadores do dispositivo ou outras informações podem ser armazenados ou acedidos no seu dispositivo, para os fins acima indicados.

  • Anúncios e conteúdos personalizados, medição de anúncios e conteúdos, dados sobre o público-alvo e desenvolvimento de produtos

    Os anúncios e os conteúdos podem ser personalizados com base num perfil. Podem ser adicionados dados adicionais para uma maior personalização dos anúncios e dos conteúdos. A eficácia dos anúncios e dos conteúdos pode ser medida. Podem ser obtidas informações sobre o público que visualizou os anúncios e os conteúdos. Estes dados podem ser usados para desenvolver ou melhorar sistemas, softwares ou a experiência do utilizador.

Ao clicar em "Eu concordo”, permitirá o uso de cookies, identificadores do dispositivo e web beacons mencionados ou outras tecnologias semelhantes. As configurações do navegador do seu dispositivo podem ser alteradas.

Para certos fins, podem ser invocados interesses legítimos ao invés de consentimento. Pode ler mais informação sobre este assunto na nossa Política de Privacidade e Cookies.